Vorticity
nan nan nan nan nan nan nan nan nan nan nan nan nan nan nan nan nan nan nan nan nan nan nan nan nan nan nan nan nan nan nan nan nan nan nan nan nan nan nan nan nan nan nan nan nan nan nan nan nan
nan 3 7 8 5 4 8 8 5 7 6 4 5 7 7 6 6 7 10 8 9 8 4 6 3 2 4 6 5 3 5 4 6 7 6 6 6 6 5 5 5 6 6 4 3 4 4 3 nan
nan 4 7 8 4 3 8 5 5 5 9 8 7 6 6 6 6 7 8 9 8 7 8 7 5 6 5 4 4 6 4 4 5 8 5 6 6 6 6 5 5 5 6 6 3 2 3 4 nan
nan 4 8 8 5 6 5 4 7 7 8 6 7 4 7 8 5 3 9 13 6 4 9 9 5 5 5 3 4 6 5 6 3 6 6 6 7 5 5 5 5 6 6 6 7 6 4 3 nan
nan 9 7 5 7 8 6 8 8 6 6 5 6 9 6 6 5 3 12 13 6 4 5 9 6 4 6 7 6 4 4 7 6 6 5 7 7 6 5 5 5 5 7 8 7 5 4 5 nan
nan 8 5 7 7 6 8 12 7 5 5 6 7 8 6 4 5 6 11 12 9 5 5 6 11 10 4 6 7 9 6 6 5 5 7 6 6 7 6 5 4 6 10 9 5 5 4 6 nan
nan 8 7 5 5 7 10 9 8 7 5 9 9 5 7 7 5 6 9 11 10 7 6 9 11 11 14 9 13 10 6 2 6 5 7 5 6 8 7 5 6 8 11 8 5 5 5 5 nan
nan 7 8 6 8 7 9 6 7 9 6 8 8 7 7 7 7 12 10 6 7 10 15 16 9 11 10 12 13 7 6 4 3 4 6 4 5 4 4 4 5 7 10 7 6 5 5 5 nan
nan 6 6 9 7 7 6 6 7 6 10 6 4 7 9 7 9 10 8 7 8 8 11 18 20 12 6 5 4 4 9 4 -2 1 1 0 3 4 6 8 6 6 8 9 7 6 4 4 nan
nan 7 8 6 1 4 10 9 5 6 6 5 6 8 6 7 8 8 8 7 8 8 9 13 11 5 7 7 5 4 7 7 2 2 1 3 7 8 7 7 3 2 4 7 6 3 -1 -2 nan
nan 3 7 7 8 7 7 11 8 5 7 10 7 10 5 6 7 5 6 7 8 8 13 11 6 9 6 6 4 5 6 8 8 6 5 5 4 7 6 5 2 2 0 3 4 1 3 5 nan
nan 7 6 6 8 7 11 7 8 4 6 9 14 13 7 6 8 7 6 8 8 9 10 10 10 7 4 6 7 7 6 8 7 4 6 6 6 6 7 7 7 6 4 7 5 6 8 7 nan
nan 8 7 4 6 11 9 6 9 5 8 9 12 7 7 5 6 7 7 8 9 8 7 8 11 7 7 6 6 7 7 8 7 6 5 6 7 6 7 7 7 8 9 6 7 9 8 6 nan
nan 5 6 9 13 11 5 5 6 13 12 5 5 5 7 7 5 6 6 6 8 8 8 8 10 8 10 9 8 7 9 8 8 8 8 8 7 6 8 7 6 6 8 8 9 8 7 7 nan
nan 9 12 12 15 9 7 5 6 10 9 5 5 6 5 8 7 8 7 6 7 8 8 8 9 10 8 10 7 9 10 9 9 8 8 8 7 8 8 6 7 7 7 7 6 6 8 8 nan
nan 7 8 11 9 13 7 4 16 14 7 5 5 5 6 7 7 9 10 7 7 8 9 8 6 7 9 9 7 9 10 7 7 9 10 8 6 7 6 7 8 8 7 6 7 6 7 8 nan
nan 10 1 7 9 8 4 3 10 13 8 7 8 6 6 6 6 7 9 8 7 8 7 8 9 8 7 6 8 9 10 8 6 10 10 7 6 8 8 7 7 8 6 9 6 7 8 7 nan
nan 9 8 7 4 8 8 8 5 10 6 6 8 9 5 7 8 9 7 9 8 8 8 7 8 9 5 6 6 6 8 8 10 10 9 9 7 7 6 9 9 6 7 6 7 7 7 9 nan
nan 7 6 8 4 7 6 7 11 12 7 9 9 10 8 10 11 9 8 7 6 8 9 8 8 7 6 5 6 7 8 7 8 10 10 9 7 8 5 7 9 7 8 8 6 8 8 7 nan
nan 5 5 5 16 7 6 12 16 10 10 11 8 9 9 9 9 7 9 7 8 6 5 7 8 7 6 6 5 7 8 8 9 7 8 10 8 6 8 8 6 7 8 9 8 6 7 9 nan
nan 8 7 5 11 8 11 10 12 9 9 11 10 8 10 9 9 9 7 6 6 7 6 7 8 7 7 6 5 8 7 6 9 8 8 8 10 8 8 7 7 8 8 8 8 9 7 8 nan
nan 11 4 7 8 11 7 8 9 12 9 9 10 8 8 7 9 12 10 8 7 5 5 7 8 6 6 7 7 9 9 4 6 8 9 11 7 6 8 8 9 7 7 8 8 8 6 8 nan
nan 11 9 10 6 7 5 12 8 8 13 12 13 10 10 10 8 9 9 11 10 8 6 6 6 6 7 6 6 5 8 7 5 9 9 8 8 9 9 8 8 7 7 8 9 8 8 4 nan
nan 11 8 9 10 9 11 7 7 8 6 7 12 14 11 10 9 8 10 10 9 9 11 9 6 5 7 6 7 8 5 6 4 5 8 8 8 10 9 9 8 9 8 9 8 9 10 8 nan
nan 7 8 8 10 11 12 6 8 9 10 7 7 12 15 11 10 9 9 6 8 9 8 9 9 7 7 7 6 7 7 8 7 6 6 8 7 9 10 9 8 8 9 9 10 10 9 9 nan
nan 6 8 8 7 10 10 7 11 9 9 10 10 12 13 12 11 9 8 8 8 9 7 8 9 8 8 8 7 6 6 6 9 9 8 8 9 9 10 9 9 8 8 9 9 8 10 9 nan
nan 11 6 6 9 11 6 4 11 15 9 9 10 12 12 14 12 9 8 8 8 10 10 8 7 8 9 9 9 9 8 7 8 8 8 8 9 9 10 8 8 9 10 10 8 8 8 6 nan
nan 4 6 10 12 6 9 11 9 6 7 6 12 13 12 12 11 11 10 9 8 9 10 11 9 9 8 8 8 9 10 9 9 9 9 7 8 8 8 8 8 8 8 10 8 7 9 8 nan
nan 6 9 10 7 8 9 11 14 6 6 7 8 12 17 13 11 11 9 11 9 10 11 10 10 9 8 8 9 8 9 8 8 7 7 7 7 7 5 5 6 7 9 11 9 8 11 11 nan
nan nan nan nan nan nan nan nan nan nan nan nan nan nan nan nan nan nan nan nan nan nan nan nan nan nan nan nan nan nan nan nan nan nan nan nan nan nan nan nan nan nan nan nan nan nan nan nan nan
CAPE
0 0 0 0 0 0 0 0 0 0 0 0 20 18 66 126 267 136 315 477 687 1324 1160 832 830 969 1079 1186 1314 1266 1442 1492 1404 1267 1106 1007 888 646 597 558 479 494 422 78 23 15 15 13 12
0 0 0 0 0 0 0 0 0 0 0 0 165 222 91 240 240 781 568 398 745 1337 598 642 809 760 929 1000 1062 1308 1371 1340 1304 1183 1019 881 676 638 707 600 452 465 506 298 80 115 23 10 7
0 0 0 0 0 0 0 0 0 0 6 8 286 131 177 139 477 677 1115 528 633 1141 643 468 801 778 673 756 936 1015 1074 1175 1154 1030 837 784 628 736 725 541 461 545 557 293 344 234 71 7 13
0 0 0 0 0 0 0 0 0 0 0 35 206 113 257 139 895 866 831 580 524 514 730 675 556 702 686 753 870 1026 887 704 939 784 731 660 601 732 630 394 376 329 206 118 105 210 5 0 0
0 0 0 0 0 0 0 0 0 0 4 4 28 30 9 43 529 563 757 701 349 395 319 750 616 652 734 949 1010 619 416 751 834 720 637 542 536 627 503 346 182 5 0 65 76 7 0 0 0
0 0 0 0 0 0 0 0 0 0 1 0 31 3 50 365 317 326 651 796 259 220 247 433 341 756 564 693 430 289 486 489 732 654 635 509 314 348 419 231 12 0 19 199 80 0 0 0 0
0 0 0 0 0 0 0 0 0 0 0 0 0 250 132 15 95 263 543 876 826 528 416 391 196 331 344 207 243 202 118 284 541 562 462 347 238 216 185 23 0 0 87 151 5 0 0 0 0
0 0 0 0 0 0 0 0 0 0 0 8 142 31 0 7 47 268 595 306 531 361 332 312 90 94 0 0 7 77 29 302 597 580 369 227 182 136 0 0 0 0 1 30 0 0 0 0 0
0 0 0 0 0 0 0 0 0 0 3 46 350 333 11 0 113 190 375 259 372 223 359 109 52 9 3 0 6 10 131 124 371 423 279 133 41 0 0 0 0 0 0 0 0 0 0 0 0
0 0 0 0 0 0 0 0 0 0 0 37 130 52 6 0 35 7 110 167 210 273 291 77 105 23 2 5 3 2 14 85 139 230 190 79 0 0 0 0 0 0 0 0 15 5 1 0 0
0 0 0 0 0 0 0 0 0 0 0 5 13 17 4 0 0 0 0 0 0 1 3 37 5 2 1 0 0 0 37 24 59 177 166 48 0 0 0 0 0 0 0 0 0 0 0 0 0
0 0 0 0 0 0 0 0 0 0 0 9 16 10 0 0 0 0 0 0 0 1 0 2 2 2 3 0 0 0 0 9 22 63 111 37 0 0 0 0 0 0 0 0 0 0 0 0 0
0 0 0 0 0 0 0 0 0 0 0 13 36 24 0 0 1 0 0 0 0 1 1 1 6 6 15 5 1 0 0 0 0 1 67 8 0 0 0 0 0 0 0 0 0 0 0 0 0
0 0 0 0 0 0 0 0 0 0 0 4 30 25 0 0 0 0 0 1 0 2 1 4 1 4 8 9 14 18 39 6 31 25 44 18 0 0 0 0 0 0 0 0 0 0 0 0 0
0 0 0 0 0 0 0 0 0 0 0 13 1 3 0 0 0 0 0 1 1 1 1 1 1 1 1 4 5 5 22 2 39 29 0 1 0 0 0 0 0 0 0 0 0 0 0 0 0
0 0 0 0 0 0 0 0 0 0 0 0 0 0 0 0 0 0 0 0 0 1 2 2 3 0 1 0 0 0 3 16 5 0 0 1 1 0 0 0 0 0 0 0 0 0 0 0 0
0 0 0 0 0 0 0 0 0 0 0 0 0 0 0 0 0 0 0 0 0 0 2 3 2 1 1 0 0 0 0 0 0 3 5 5 7 1 0 0 0 0 0 0 0 0 0 0 0
0 0 0 0 0 0 0 0 0 0 0 0 0 0 0 0 0 0 0 0 1 0 2 1 1 1 1 0 0 0 0 0 0 6 6 4 13 4 1 0 0 0 0 0 0 0 0 0 0
0 0 0 0 0 0 0 0 0 0 0 0 0 0 0 0 0 0 0 3 1 2 1 1 1 1 0 0 0 0 0 0 0 1 11 20 31 36 21 3 0 2 0 0 0 0 0 0 0
0 0 0 0 0 0 0 0 0 0 0 0 0 0 0 0 0 0 0 3 3 0 1 1 1 0 0 0 0 0 0 0 0 0 11 40 66 97 78 37 29 38 22 2 0 0 0 0 0
0 0 0 0 0 0 0 0 0 0 0 0 0 0 0 0 0 0 1 0 2 0 1 0 0 0 0 0 0 0 0 0 0 2 1 5 37 56 67 70 19 11 3 17 0 0 0 0 0
0 0 0 0 0 0 0 0 0 0 0 0 0 0 0 0 0 0 0 0 0 0 0 0 0 0 0 0 0 0 0 1 0 0 0 5 13 17 35 62 43 26 2 8 0 0 0 0 0
0 0 0 0 0 0 0 0 0 0 0 0 0 0 0 0 0 0 0 0 0 0 0 0 0 0 0 0 0 0 0 0 0 0 0 0 0 1 0 12 12 9 6 17 2 0 0 0 0
0 0 0 0 0 0 0 0 0 0 0 0 0 0 0 0 0 0 0 0 0 0 0 0 0 0 0 0 0 0 0 0 0 0 0 0 0 0 0 0 0 2 0 0 0 0 0 0 0
0 0 0 0 0 0 0 0 0 0 0 0 0 0 0 0 0 0 0 0 0 0 0 0 0 0 0 0 0 0 0 0 0 0 0 0 0 0 0 0 0 0 0 0 0 0 0 0 0
0 0 0 0 0 0 0 0 0 0 0 0 0 0 0 0 0 0 0 0 0 0 0 0 0 0 0 0 0 0 0 0 0 0 0 0 0 0 0 0 0 0 0 0 0 0 0 0 0
0 0 0 0 0 0 0 0 0 0 0 0 0 0 0 0 0 0 0 0 0 0 0 0 0 0 0 0 0 0 0 0 0 0 0 0 0 0 0 0 0 0 0 0 0 0 0 0 0
0 0 0 0 0 0 0 0 0 0 0 0 0 0 0 0 0 0 0 0 0 0 0 0 0 0 0 0 0 0 0 0 0 0 0 0 0 0 0 0 0 0 0 0 0 0 0 0 0
0 0 0 0 0 0 0 0 0 0 0 0 0 0 0 0 0 0 0 0 0 0 0 0 0 0 0 0 0 0 0 0 0 0 0 0 0 0 0 0 0 0 0 0 0 0 0 0 0
0 0 0 0 0 0 0 0 0 0 0 0 0 0 0 0 0 0 0 0 0 0 0 0 0 0 0 0 0 0 0 0 0 0 0 0 0 0 0 0 1 0 0 0 0 0 0 0 0